User: anonymous   Login
Location: Caltech
(34.1382°N, 118.1253°W)
Time: 05:53:34
(UTC-08:00)
Language:

BREEZE M DEB (TANK) - Orbit

View from above orbital plane
View from above orbital plane
View from above satellite
View from above satellite

Ground track
Ground track

The orbit data is extracted from the following two-line orbital elements,

1 33437U 08057B   14327.53830889  .00001852  00000-0  59072-3 0  1276
2 33437 049.5773 325.0200 5005954 116.7097 011.4835 05.56277035121509
Epoch (UTC): 23 November 2014 12:55:09
Eccentricity: 0.5005954
inclination: 49.5773°
perigee height: 341 km
apogee height: 13812 km
right ascension of ascending node: 325.0200°
argument of perigee: 116.7097°
revolutions per day: 5.56277035
mean anomaly at epoch: 11.4835°
orbit number at epoch: 12150

The dashed part of the orbit path shows where the satellite is in the earth's shadow,  

DLR